Cloud_Cover
98 86 100 100 100 96 99 71 13 5 5 5 5 5 7 32 36 5 7 6 35 28 4 0 0 0 0 0 0 0 0 1 3 1 0 0 0 0 0 0 0 0 0
62 69 100 100 100 100 91 100 100 98 6 14 6 7 81 93 100 64 27 5 4 9 1 0 0 0 0 5 5 0 0 0 1 0 0 0 2 4 0 0 0 0 0
87 59 99 100 100 100 100 100 84 81 59 82 100 74 89 100 95 91 89 18 5 4 2 0 4 4 8 89 5 0 37 12 5 0 10 76 38 5 5 0 0 0 0
97 80 62 78 100 84 95 100 99 100 100 100 100 99 100 98 100 100 100 100 99 73 9 2 5 5 57 6 4 5 5 66 30 42 18 92 92 78 0 0 0 0 0
43 56 85 100 97 74 100 100 100 90 100 100 99 100 100 100 100 100 100 98 100 100 6 60 58 82 57 5 5 96 100 19 4 84 100 83 92 1 0 0 0 0 0
98 96 100 100 100 100 100 100 100 100 100 78 100 100 100 100 100 100 100 100 98 79 89 97 96 100 94 91 100 100 5 100 100 100 45 5 6 56 0 0 0 0 0
100 100 100 100 100 100 100 100 100 100 100 100 100 100 100 100 100 100 91 92 98 83 100 100 100 100 100 82 100 100 93 100 100 89 95 86 16 3 0 0 0 0 0
100 100 100 100 100 100 100 100 100 99 99 100 100 100 100 100 100 100 100 100 100 100 100 100 100 77 100 100 85 80 89 100 100 87 5 23 19 0 0 0 0 0 0
100 100 100 100 100 100 100 100 100 100 100 100 100 100 100 100 100 100 100 100 100 100 99 99 100 86 98 80 56 100 100 70 37 100 95 43 5 0 0 0 0 0 0
100 100 100 100 100 100 100 100 100 100 100 100 100 100 100 100 100 100 100 100 100 100 100 100 99 72 86 51 100 100 100 88 93 21 15 3 0 0 0 0 0 4 21
100 100 100 100 100 100 100 100 100 100 100 100 100 100 100 100 100 100 100 100 100 100 100 100 100 100 45 80 100 100 96 78 80 5 0 0 0 0 1 4 34 3 36
100 100 100 100 100 100 100 100 100 100 100 100 100 100 100 100 100 100 100 100 100 100 100 100 68 99 100 100 100 99 5 28 4 3 1 13 74 61 47 4 100 48 91
100 100 100 100 100 100 100 100 100 100 100 100 100 100 100 100 100 100 100 100 100 100 100 100 94 100 100 100 84 9 5 2 2 0 4 69 19 100 100 93 27 28 50
100 100 100 100 100 100 100 100 100 100 100 100 100 100 100 100 100 100 100 100 100 94 95 100 100 17 99 95 8 51 56 10 21 15 96 96 41 58 0 4 0 0 0
100 100 100 100 100 100 100 100 100 100 100 100 100 100 100 100 100 100 100 100 100 100 100 100 95 78 100 100 100 100 80 100 100 100 100 41 4 47 10 5 5 5 0
100 100 100 100 100 100 100 100 100 100 100 100 100 100 100 100 100 100 100 100 100 85 100 100 38 63 98 93 95 100 100 100 100 100 54 44 100 99 2 5 39 1 0
100 100 100 100 100 100 100 100 100 100 100 100 100 100 100 100 100 100 100 100 100 100 100 100 97 80 95 8 42 5 5 96 80 48 73 10 4 0 3 5 0 0 0
100 100 100 100 100 100 100 100 100 100 100 100 100 100 100 100 88 98 100 94 36 10 26 4 37 4 2 4 18 56 8 2 2 0 0 0 0 0 0 3 5 5 5
100 100 100 100 100 100 100 100 100 100 100 100 100 99 100 100 79 65 63 5 5 4 0 1 0 0 0 0 0 0 0 0 0 0 0 0 1 5 12 35 43 69 21
100 100 100 100 100 100 100 100 100 100 100 100 83 67 76 81 95 100 17 5 5 1 0 0 0 0 0 0 0 0 0 0 0 0 0 0 5 5 5 33 87 70 57
100 100 100 36 75 93 100 100 100 92 100 100 100 100 100 100 100 88 5 0 0 0 0 0 0 0 0 0 0 0 0 0 0 0 0 0 0 5 46 88 99 83 81
100 100 100 71 100 93 90 100 100 100 100 63 43 31 7 5 5 5 5 0 0 0 0 1 0 0 0 0 0 0 0 0 0 0 0 0 0 0 3 5 78 99 88
86 52 92 100 100 100 48 52 73 100 100 38 6 5 3 5 2 5 5 0 0 0 0 5 0 0 0 0 0 0 0 0 4 5 5 5 2 0 0 0 0 4 5
100 100 100 100 100 100 100 100 100 87 17 4 0 0 5 5 4 5 4 4 5 0 0 3 0 0 0 0 0 5 5 5 5 5 5 5 4 0 0 0 0 0 3
71 64 88 100 92 79 20 59 11 0 0 0 0 0 0 0 3 5 24 91 75 5 2 3 5 5 1 5 4 26 26 5 0 5 5 2 3 5 4 0 0 0 0
5 96 100 98 5 3 1 76 10 1 0 0 0 14 58 97 75 66 22 17 11 7 0 0 0 0 0 1 0 4 4 5 14 66 24 5 5 4 0 0 0 0 0